STARLINK-5914, 55941

Orbit data source: Space-Track

STARLINK-5914, 55941 is a payload satellite owned by SpaceX/Seattle (US) in LEO that was launched on Fri, 17 Mar 2023 UTC via an FALCON 9 launch vehicle from the Air Force Western Test Range (AFWTR). Payload-class satellites include a variety of spacecraft equipped with specific instruments for various scientific and technological missions. These include communications satellites like Starlink; space stations such as the ISS; scientific satellites like the Hubble; Earth observation satellites from companies like Planet Labs, Umbra, and HawkEye 360; GPS; miniature CubeSats for education and research; and military/defense satellites.

Loading next visibility...
Identifier
55941, 2023-037AD
Orbit
LEO
Country
Flag of USUS
Related business
Manufacturer
SpaceX/Seattle
Mission
Operational Commercial Communications
Bus & Motor
STARLINK, Unknown motor
Mass
305 kg wet, ~290 kg dry
Launch date (UTC)
2023-03-17 (3 years ago)
Launch vehicle
FALCON 9
Launch site
Air Force Western Test Range (AFWTR)
Object type
Payload
Rocket body
Debris
Shape & HBR
Box + 1 Pan, 10.1 m
Radar Cross Section
11.087 m², Large (>1 m²)

Expand to show TLE details & history
Last TLE update: 17 hours ago

TLE from 17 hours ago
0 STARLINK-5914
1 55941U 23037AD  25349.81952027  .00000369  00000-0  38700-4 0  9996
2 55941  69.9999 136.0689 0003000 274.9842  85.0974 14.98330310151416
Epoch: 2025-12-15T19:40Z
TLE epoch observation values (Epoch: 2025-12-15T19:40:06.551Z)
Latitude
-0.00007°
Longitude
116.32897°
Altitude
574.301 km
Speed
7.574 km/s
True Right ascension
09h 04m 16s
True Declination
0° 00' 00"
Sunlit
Object was in full shadow at epoch
Visualization orbit readout
Latitude
Unknown
Longitude
Unknown
Altitude
Unknown
Speed
Unknown
Apparent Right ascension
Unknown
Apparent Declination
Unknown
Sunlit
N/A
Visualization observer readout
Local Sidereal Time
11:16:36
Azimuth
Unknown
Elevation
Unknown
Doppler factor
Unknown
Orbital elements
Apogee altitude
572.088 km
Perigee altitude
567.919 km
Semi-major axis
6,948.14 km
Eccentricity
0.0003
Inclination
69.9999°
RAAN
136.0689°
Arg. of periapsis
274.9842°
True anomaly
85.13165°
Mean anomaly
85.0974°
Eccentric anomaly
85.11453°
Mean motion
3.74749 °/min
Orbital period
96.06 mins
BSTAR
0.0000387
Loading maneuver chart data...
Computing Atmospheric mass density...
Loading historical data...
Loading historical data...
Loading historical data...
Loading historical data...
Loading historical data...
Loading historical data...
Loading historical data...

Documentation

Showing up to 5 results
|